| time (UTC) | temp F | wind direction | speed MPH | gust MPH | rain 1hr in | rain 24hr in | rain mn in | humidity % | barometer mb |
| 20260904060036 | 48 | 128 | 0.0 | 3.0 | 0.00 | 2.60 | 2.60 | 95 | 1012.9 |
| 20260904054537 | 48 | 137 | 0.0 | 3.0 | 0.00 | 2.60 | 2.60 | 95 | 1012.9 |
| 20260904053036 | 48 | 179 | 0.0 | 3.0 | 0.00 | 2.60 | 2.60 | 95 | 1013.0 |
| 20260904044528 | 50 | 208 | 1.0 | 3.0 | 0.00 | 2.60 | 2.60 | 95 | 1013.1 |
| 20260904043035 | 50 | 286 | 0.0 | 3.0 | 0.00 | 2.60 | 2.60 | 94 | 1013.2 |
| 20260904041533 | 50 | 203 | 0.0 | 2.0 | 0.00 | 2.60 | 2.60 | 94 | 1013.3 |
| 20260904040034 | 50 | 247 | 0.0 | 2.0 | 0.00 | 2.60 | 2.60 | 94 | 1013.2 |
| 20260904034534 | 50 | 273 | 1.0 | 5.0 | 0.00 | 2.60 | 2.60 | 93 | 1013.0 |
| 20260904033033 | 50 | 167 | 0.0 | 3.0 | 0.00 | 2.60 | 2.60 | 92 | 1012.9 |
| 20260904031535 | 50 | 279 | 0.0 | 2.0 | 0.00 | 2.60 | 2.60 | 92 | 1012.8 |
| 20260904030035 | 50 | 292 | 0.0 | 2.0 | 0.00 | 2.60 | 2.60 | 91 | 1012.7 |
| 20260904024530 | 51 | 263 | 0.0 | 3.0 | 0.00 | 2.60 | 2.60 | 90 | 1012.6 |
| 20260904023030 | 52 | 279 | 1.0 | 4.0 | 0.00 | 2.61 | 2.60 | 89 | 1012.5 |
| 20260904021534 | 53 | 329 | 1.0 | 5.0 | 0.00 | 2.67 | 2.60 | 89 | 1012.6 |
| 20260904020031 | 53 | 15 | 2.0 | 6.0 | 0.00 | 2.72 | 2.60 | 89 | 1012.5 |
| 20260904013037 | 54 | 7 | 2.0 | 6.0 | 0.00 | 2.80 | 2.60 | 88 | 1012.5 |
| 20260904011536 | 54 | 1 | 2.0 | 6.0 | 0.00 | 2.80 | 2.60 | 88 | 1012.5 |
| 20260904010106 | 54 | 354 | 1.0 | 5.0 | 0.00 | 2.82 | 2.60 | 88 | 1012.4 |
| 20260904004536 | 54 | 341 | 1.0 | 4.0 | 0.00 | 2.83 | 2.60 | 88 | 1012.3 |
| 20260904003105 | 54 | 316 | 2.0 | 5.0 | 0.00 | 2.85 | 2.60 | 87 | 1012.2 |
| 20260904001533 | 55 | 340 | 1.0 | 4.0 | 0.00 | 2.85 | 2.60 | 86 | 1012.2 |
| 20260904000038 | 55 | 67 | 2.0 | 7.0 | 2.59 | 2.89 | 2.60 | 85 | 1012.1 |
| 20260903234536 | 55 | 64 | 4.0 | 9.0 | 2.59 | 2.90 | 2.60 | 85 | 1012.2 |
| 20260903231537 | 56 | 52 | 1.0 | 6.0 | 2.59 | 2.92 | 0.01 | 75 | 1012.4 |
| 20260903230037 | 58 | 303 | 3.0 | 9.0 | 0.00 | 0.34 | 0.01 | 70 | 1012.4 |
| 20260903224607 | 59 | 309 | 3.0 | 7.0 | 0.00 | 0.35 | 0.01 | 68 | 1012.4 |
| 20260903223109 | 61 | 323 | 3.0 | 7.0 | 0.00 | 0.36 | 0.01 | 66 | 1012.4 |
| 20260903221535 | 61 | 320 | 3.0 | 7.0 | 0.00 | 0.36 | 0.01 | 66 | 1012.4 |
| 20260903213037 | 60 | 324 | 1.0 | 4.0 | 0.00 | 0.39 | 0.01 | 71 | 1012.5 |
| 20260903211533 | 59 | 311 | 2.0 | 7.0 | 0.00 | 0.41 | 0.01 | 72 | 1012.5 |
| 20260903210036 | 59 | 326 | 4.0 | 7.0 | 0.00 | 0.41 | 0.01 | 73 | 1012.7 |
| 20260903204535 | 59 | 321 | 4.0 | 7.0 | 0.00 | 0.41 | 0.01 | 73 | 1012.7 |
| 20260903203032 | 59 | 312 | 5.0 | 8.0 | 0.00 | 0.43 | 0.01 | 74 | 1012.8 |
| 20260903201644 | 59 | 318 | 5.0 | 11.0 | 0.00 | 0.44 | 0.01 | 76 | 1012.9 |
| 20260903200035 | 58 | 332 | 4.0 | 7.0 | 0.00 | 0.45 | 0.01 | 76 | 1012.9 |
| 20260903193036 | 59 | 344 | 4.0 | 11.0 | 0.00 | 0.45 | 0.01 | 74 | 1013.3 |
| 20260903191536 | 58 | 23 | 4.0 | 9.0 | 0.01 | 0.45 | 0.01 | 79 | 1013.4 |
| 20260903190036 | 57 | 8 | 5.0 | 9.0 | 0.01 | 0.45 | 0.01 | 80 | 1013.5 |
| 20260903184645 | 59 | 331 | 4.0 | 9.0 | 0.01 | 0.45 | 0.01 | 77 | 1013.6 |
| 20260903181538 | 60 | 32 | 2.0 | 7.0 | 0.00 | 0.44 | 0.00 | 77 | 1013.5 |
| 20260903180037 | 58 | 68 | 1.0 | 3.0 | 0.00 | 0.44 | 0.00 | 83 | 1013.6 |
| 20260903174534 | 57 | 36 | 1.0 | 5.0 | 0.00 | 0.44 | 0.00 | 88 | 1013.6 |
| 20260903173110 | 54 | 42 | 2.0 | 9.0 | 0.00 | 0.44 | 0.00 | 93 | 1013.6 |
| 20260903171530 | 51 | 47 | 1.0 | 5.0 | 0.00 | 0.44 | 0.00 | 97 | 1013.6 |
| 20260903161536 | 49 | 88 | 0.0 | 4.0 | 0.00 | 0.44 | 0.00 | 98 | 1013.5 |
| 20260903160110 | 48 | 186 | 1.0 | 6.0 | 0.00 | 0.44 | 0.00 | 98 | 1013.5 |
| 20260903153045 | 47 | 343 | 0.0 | 2.0 | 0.00 | 0.44 | 0.00 | 98 | 1013.5 |
| 20260903151609 | 47 | 252 | 0.0 | 4.0 | 0.00 | 0.44 | 0.00 | 98 | 1013.4 |
| 20260903150035 | 46 | 100 | 0.0 | 6.0 | 0.00 | 0.44 | 0.00 | 98 | 1013.4 |
| 20260903144531 | 45 | 309 | 1.0 | 4.0 | 0.00 | 0.44 | 0.00 | 98 | 1013.3 |
| 20260903141534 | 44 | 185 | 2.0 | 4.0 | 0.00 | 0.44 | 0.00 | 98 | 1013.0 |
| 20260903134535 | 43 | 286 | 1.0 | 4.0 | 0.00 | 0.44 | 0.00 | 98 | 1012.8 |
| 20260903133151 | 43 | 185 | 1.0 | 5.0 | 0.00 | 0.44 | 0.00 | 98 | 1012.6 |
| 20260903131607 | 42 | 156 | 1.0 | 4.0 | 0.00 | 0.44 | 0.00 | 98 | 1012.6 |
| 20260903130032 | 42 | 203 | 2.0 | 6.0 | 0.00 | 0.44 | 0.00 | 98 | 1012.5 |
| 20260903124605 | 41 | 176 | 1.0 | 3.0 | 0.00 | 0.44 | 0.00 | 98 | 1012.5 |
| 20260903123034 | 41 | 184 | 1.0 | 4.0 | 0.00 | 0.44 | 0.00 | 98 | 1012.6 |
| 20260903121534 | 41 | 207 | 2.0 | 4.0 | 0.00 | 0.44 | 0.00 | 97 | 1012.5 |
| 20260903114607 | 42 | 168 | 0.0 | 5.0 | 0.00 | 0.44 | 0.00 | 97 | 1012.6 |
| 20260903111535 | 40 | 193 | 3.0 | 5.0 | 0.00 | 0.44 | 0.00 | 97 | 1012.5 |
| 20260903103043 | 42 | 166 | 3.0 | 6.0 | 0.00 | 0.44 | 0.00 | 97 | 1012.0 |
| 20260903100033 | 42 | 169 | 2.0 | 5.0 | 0.00 | 0.44 | 0.00 | 97 | 1012.2 |
| 20260903094610 | 42 | 182 | 1.0 | 5.0 | 0.00 | 0.44 | 0.00 | 96 | 1012.2 |
| 20260903093036 | 43 | 180 | 0.0 | 1.0 | 0.00 | 0.44 | 0.00 | 96 | 1012.2 |
| 20260903091644 | 43 | 167 | 0.0 | 3.0 | 0.00 | 0.44 | 0.00 | 96 | 1012.1 |
| 20260903090034 | 43 | 191 | 1.0 | 4.0 | 0.00 | 0.44 | 0.00 | 96 | 1012.3 |
| 20260903083033 | 44 | 150 | 1.0 | 3.0 | 0.00 | 0.44 | 0.00 | 96 | 1012.3 |
| 20260903080034 | 46 | 171 | 3.0 | 5.0 | 0.00 | 0.44 | 0.00 | 95 | 1012.3 |
| 20260903074605 | 45 | 212 | 0.0 | 4.0 | 0.00 | 0.44 | 0.00 | 95 | 1012.0 |
| 20260903073035 | 46 | 204 | 2.0 | 4.0 | 0.00 | 0.44 | 0.00 | 95 | 1011.9 |
| 20260903071606 | 46 | 305 | 1.0 | 4.0 | 0.00 | 0.44 | 0.00 | 95 | 1011.9 |
| 20260903070029 | 46 | 312 | 1.0 | 6.0 | 0.00 | 0.44 | 0.00 | 94 | 1011.9 |
| 20260903064530 | 46 | 308 | 0.0 | 6.0 | 0.00 | 0.44 | 0.44 | 94 | 1011.9 |
| 20260903061536 | 47 | 314 | 1.0 | 4.0 | 0.00 | 0.44 | 0.44 | 93 | 1012.0 |